When you browse on this site, cookies collect data to enhance your experience and personalize the content and advertising you see.
Visit our Privacy Policy to learn more. By continuing to use the site, you agree to this use of cookies and data.
  • In Czech Republic
  • List of Countries
  • For 7 days
  • Water Temperature
  • Satellite Maps
  • Weather Map
  • Weather Widgets
  • user-avatar
    Login

    Hourly Weather Millville

    Today, 23 July, Tuesday

    Time Temperature Precipitation Wind Pressure Humidity
    00:00 +25°C° 0.9 mm 5 mps 754 mmHg 89%
    01:00 +24°C° 0.9 mm 3 mps 754 mmHg 89%
    02:00 +25°C° 0 mm 4 mps 754 mmHg 89%
    03:00 +25°C° 0 mm 4 mps 754 mmHg 89%
    04:00 +25°C° 0 mm 5 mps 754 mmHg 88%
    05:00 +23°C° 0.6 mm 5 mps 754 mmHg 89%
    06:00 +22°C° 0.6 mm 4 mps 755 mmHg 90%
    07:00 +21°C° 0.6 mm 4 mps 755 mmHg 91%
    08:00 +21°C° 0.1 mm 4 mps 756 mmHg 91%
    09:00 +21°C° 0.1 mm 3 mps 756 mmHg 90%
    10:00 +21°C° 0.1 mm 3 mps 757 mmHg 90%
    11:00 +21°C° 0.8 mm 3 mps 757 mmHg 91%
    12:00 +21°C° 0.8 mm 3 mps 757 mmHg 91%
    13:00 +21°C° 0.8 mm 4 mps 757 mmHg 92%
    14:00 +22°C° 0.2 mm 3 mps 757 mmHg 89%
    15:00 +22°C° 0.2 mm 3 mps 757 mmHg 87%
    16:00 +24°C° 0.2 mm 3 mps 756 mmHg 84%
    17:00 +23°C° 0 mm 2 mps 756 mmHg 85%
    18:00 +23°C° 0 mm 2 mps 756 mmHg 86%
    19:00 +23°C° 0 mm 1 mps 756 mmHg 86%
    20:00 +22°C° 0 mm 1 mps 756 mmHg 87%
    21:00 +22°C° 0 mm 1 mps 756 mmHg 87%
    22:00 +22°C° 0 mm 1 mps 756 mmHg 88%
    23:00 +22°C° 0 mm 1 mps 756 mmHg 89%

    Tomorrow, 24 July, Wednesday

    Time Temperature Precipitation Wind Pressure Humidity
    00:00 +22°C° 0 mm 1 mps 756 mmHg 89%
    01:00 +21°C° 0 mm 1 mps 756 mmHg 90%
    02:00 +21°C° 0 mm 1 mps 756 mmHg 91%
    03:00 +20°C° 0 mm 2 mps 756 mmHg 92%
    04:00 +20°C° 0 mm 2 mps 756 mmHg 94%
    05:00 +20°C° 0.1 mm 3 mps 757 mmHg 91%
    06:00 +21°C° 0.1 mm 3 mps 757 mmHg 88%
    07:00 +22°C° 0.1 mm 4 mps 758 mmHg 85%
    08:00 +23°C° 0 mm 4 mps 758 mmHg 78%
    09:00 +26°C° 0 mm 4 mps 758 mmHg 71%
    10:00 +27°C° 0 mm 4 mps 759 mmHg 64%
    11:00 +28°C° 0 mm 3 mps 759 mmHg 60%
    12:00 +29°C° 0 mm 3 mps 759 mmHg 55%
    13:00 +30°C° 0 mm 2 mps 759 mmHg 50%
    14:00 +29°C° 0.1 mm 2 mps 759 mmHg 54%
    15:00 +29°C° 0.1 mm 2 mps 759 mmHg 57%
    16:00 +28°C° 0.1 mm 2 mps 758 mmHg 61%
    17:00 +27°C° 0.5 mm 2 mps 759 mmHg 67%
    18:00 +25°C° 0.5 mm 2 mps 759 mmHg 72%
    19:00 +24°C° 0.5 mm 2 mps 760 mmHg 78%
    20:00 +23°C° 0.1 mm 1 mps 760 mmHg 79%
    21:00 +23°C° 0.1 mm 1 mps 760 mmHg 80%
    22:00 +23°C° 0.1 mm 1 mps 760 mmHg 81%
    23:00 +22°C° 0.1 mm 1 mps 761 mmHg 83%

    Day after tomorrow, 25 July, Thursday

    Time Temperature Precipitation Wind Pressure Humidity
    00:00 +22°C° 0.1 mm 1 mps 761 mmHg 84%
    01:00 +21°C° 0.1 mm 1 mps 761 mmHg 85%
    02:00 +21°C° 0 mm 1 mps 761 mmHg 86%
    03:00 +21°C° 0 mm 1 mps 761 mmHg 86%
    04:00 +21°C° 0 mm 1 mps 761 mmHg 87%
    05:00 +22°C° 0 mm 1 mps 762 mmHg 84%
    06:00 +23°C° 0 mm 1 mps 762 mmHg 81%
    07:00 +24°C° 0 mm 1 mps 762 mmHg 78%
    08:00 +25°C° 0 mm 1 mps 763 mmHg 69%
    09:00 +27°C° 0 mm 1 mps 763 mmHg 61%
    10:00 +29°C° 0 mm 1 mps 763 mmHg 52%
    11:00 +30°C° 0 mm 1 mps 763 mmHg 49%
    12:00 +30°C° 0 mm 1 mps 763 mmHg 45%
    13:00 +31°C° 0 mm 1 mps 763 mmHg 42%
    14:00 +31°C° 0 mm 1 mps 763 mmHg 45%
    15:00 +30°C° 0 mm 2 mps 763 mmHg 49%
    16:00 +29°C° 0 mm 2 mps 763 mmHg 53%
    17:00 +28°C° 0 mm 2 mps 763 mmHg 58%
    18:00 +27°C° 0 mm 2 mps 764 mmHg 64%
    19:00 +26°C° 0 mm 2 mps 764 mmHg 70%
    20:00 +25°C° 0 mm 2 mps 764 mmHg 69%
    21:00 +24°C° 0 mm 2 mps 764 mmHg 69%
    22:00 +24°C° 0 mm 1 mps 765 mmHg 69%
    23:00 +23°C° 0 mm 1 mps 765 mmHg 71%

    26 July, Friday

    Time Temperature Precipitation Wind Pressure Humidity
    00:00 +23°C° 0 mm 1 mps 765 mmHg 72%
    01:00 +23°C° 0 mm 1 mps 765 mmHg 73%
    02:00 +22°C° 0 mm 1 mps 765 mmHg 74%
    03:00 +21°C° 0 mm 2 mps 765 mmHg 74%
    04:00 +20°C° 0 mm 2 mps 765 mmHg 75%
    05:00 +22°C° 0 mm 1 mps 765 mmHg 73%
    06:00 +23°C° 0 mm 1 mps 766 mmHg 71%
    07:00 +24°C° 0 mm 1 mps 766 mmHg 69%
    08:00 +26°C° 0 mm 1 mps 767 mmHg 63%
    09:00 +28°C° 0 mm 1 mps 767 mmHg 57%
    10:00 +30°C° 0 mm 1 mps 767 mmHg 51%
    11:00 +31°C° 0 mm 1 mps 767 mmHg 47%
    12:00 +31°C° 0 mm 1 mps 767 mmHg 44%
    13:00 +32°C° 0 mm 1 mps 767 mmHg 41%
    14:00 +32°C° 0 mm 1 mps 766 mmHg 42%
    15:00 +32°C° 0 mm 2 mps 766 mmHg 43%
    16:00 +31°C° 0 mm 2 mps 766 mmHg 44%
    17:00 +30°C° 0 mm 2 mps 766 mmHg 52%
    18:00 +28°C° 0 mm 3 mps 766 mmHg 60%
    19:00 +26°C° 0 mm 3 mps 766 mmHg 68%
    20:00 +26°C° 0 mm 2 mps 767 mmHg 72%
    21:00 +25°C° 0 mm 2 mps 767 mmHg 76%
    22:00 +24°C° 0 mm 2 mps 767 mmHg 79%
    23:00 +24°C° 0 mm 2 mps 767 mmHg 80%

    27 July, Saturday

    Time Temperature Precipitation Wind Pressure Humidity
    00:00 +24°C° 0 mm 2 mps 767 mmHg 81%
    01:00 +23°C° 0 mm 2 mps 767 mmHg 81%
    02:00 +23°C° 0 mm 2 mps 767 mmHg 82%
    03:00 +23°C° 0 mm 1 mps 767 mmHg 82%
    04:00 +23°C° 0 mm 1 mps 767 mmHg 83%
    05:00 +23°C° 0 mm 1 mps 768 mmHg 81%
    06:00 +24°C° 0 mm 1 mps 768 mmHg 78%
    07:00 +25°C° 0 mm 1 mps 768 mmHg 76%
    08:00 +27°C° 0 mm 1 mps 768 mmHg 70%
    09:00 +28°C° 0 mm 1 mps 768 mmHg 65%
    10:00 +30°C° 0 mm 1 mps 768 mmHg 59%
    11:00 +31°C° 0 mm 1 mps 768 mmHg 56%
    12:00 +31°C° 0 mm 2 mps 768 mmHg 53%
    13:00 +32°C° 0 mm 2 mps 768 mmHg 50%
    14:00 +31°C° 0 mm 3 mps 767 mmHg 52%
    15:00 +31°C° 0 mm 3 mps 767 mmHg 54%
    16:00 +30°C° 0 mm 4 mps 767 mmHg 56%
    17:00 +29°C° 0 mm 3 mps 767 mmHg 61%
    18:00 +27°C° 0 mm 3 mps 767 mmHg 66%
    19:00 +26°C° 0 mm 3 mps 767 mmHg 72%
    20:00 +25°C° 0 mm 3 mps 767 mmHg 72%
    21:00 +24°C° 0 mm 2 mps 767 mmHg 73%
    22:00 +24°C° 0 mm 2 mps 767 mmHg 73%
    23:00 +24°C° 0 mm 2 mps 767 mmHg 75%

    28 July, Sunday

    Time Temperature Precipitation Wind Pressure Humidity
    00:00 +23°C° 0 mm 2 mps 767 mmHg 76%
    01:00 +23°C° 0 mm 1 mps 767 mmHg 77%
    02:00 +23°C° 0 mm 1 mps 767 mmHg 78%
    03:00 +22°C° 0 mm 1 mps 767 mmHg 79%
    04:00 +22°C° 0 mm 1 mps 767 mmHg 80%
    05:00 +23°C° 0 mm 1 mps 767 mmHg 78%
    06:00 +24°C° 0 mm 1 mps 767 mmHg 75%
    07:00 +25°C° 0 mm 1 mps 767 mmHg 72%
    08:00 +27°C° 0 mm 1 mps 767 mmHg 67%
    09:00 +28°C° 0 mm 1 mps 767 mmHg 61%
    10:00 +30°C° 0 mm 1 mps 767 mmHg 56%
    11:00 +30°C° 0 mm 1 mps 767 mmHg 54%
    12:00 +31°C° 0 mm 1 mps 766 mmHg 52%
    13:00 +31°C° 0 mm 2 mps 766 mmHg 50%
    14:00 +31°C° 0 mm 2 mps 765 mmHg 52%
    15:00 +30°C° 0 mm 3 mps 765 mmHg 53%
    16:00 +30°C° 0 mm 4 mps 765 mmHg 55%
    17:00 +28°C° 0 mm 3 mps 765 mmHg 60%
    18:00 +27°C° 0 mm 3 mps 765 mmHg 66%
    19:00 +25°C° 0 mm 2 mps 765 mmHg 71%
    20:00 +25°C° 0 mm 2 mps 765 mmHg 72%
    21:00 +24°C° 0 mm 2 mps 765 mmHg 72%
    22:00 +24°C° 0 mm 2 mps 765 mmHg 73%
    23:00 +24°C° 0 mm 2 mps 765 mmHg 74%
    Show more